Showing default

BEIDOU 3M19, 44864

Orbit data source: Space-Track

BEIDOU 3M19, 44864 is a payload satellite owned by CNSA (CN) in MEO that was launched on Mon, 16 Dec 2019 UTC via a CHANG ZHENG 3B/YZ-1 launch vehicle from the Xichang Space Center, China (XSC). Payload-class satellites include a variety of spacecraft equipped with specific instruments for various scientific and technological missions. These include communications satellites like Starlink; space stations such as the ISS; scientific satellites like the Hubble; Earth observation satellites from companies like Planet Labs, Umbra, and HawkEye 360; GPS; miniature CubeSats for education and research; and military/defense satellites.

Loading next visibility...
Identifier
44864, 2019-090A
Orbit
MEO
Country
Flag of CNCN / PRC
Related business
Manufacturer
CAST
Mission
Operational Defense Navigation
Bus & Motor
BD-3M, Unknown motor
Mass
1,014 kg wet, ~850 kg dry
Launch date (UTC)
2019-12-16 (6 years ago)
Launch vehicle
CHANG ZHENG 3B/YZ-1
Launch site
Xichang Space Center, China (XSC)
Object type
Payload
Rocket body
Debris
Shape & HBR
Box + 2 Pan, Unknown HBR
Radar Cross Section
8.984 m², Large (>1 m²)

Expand to show TLE details & history
Last TLE update: 2 days ago

TLE from 2 days ago
0 BEIDOU 3M19
1 44864U 19090A   26134.37148076 -.00000039  00000-0  00000-0 0  9990
2 44864  56.5302  63.9086 0019040 296.9236 245.2774  1.86231675 43605
Epoch: 2026-05-14T08:54Z
TLE epoch observation values (Epoch: 2026-05-14T08:54:55.937Z)
Latitude
-1.73257°
Longitude
-120.80998°
Altitude
21,550.867 km
Speed
3.776 km/s
True Right ascension
16h 20m 09s
True Declination
-1° 43' 48"
Sunlit
Object was in daylight at epoch
Visualization orbit readout
Latitude
Unknown
Longitude
Unknown
Altitude
Unknown
Speed
Unknown
Apparent Right ascension
Unknown
Apparent Declination
Unknown
Sunlit
N/A
Visualization observer readout
Local Sidereal Time
20:17:31
Azimuth
Unknown
Elevation
Unknown
Doppler factor
Unknown
Orbital elements
Apogee altitude
21,581.065 km
Perigee altitude
21,474.799 km
Semi-major axis
27,906.069 km
Eccentricity
0.0019
Inclination
56.5302°
RAAN
63.9086°
Arg. of periapsis
296.9236°
True anomaly
245.07941°
Mean anomaly
245.2774°
Eccentric anomaly
245.17839°
Mean motion
0.46558 °/min
Orbital period
773.23 mins
BSTAR
0
Loading maneuver chart data...
Computing Atmospheric mass density...
Loading historical data...
Loading historical data...
Loading historical data...
Loading historical data...
Loading historical data...
Loading historical data...
Loading historical data...
Other satellites on launch #90 in the year 2019 (2019-12-16 UTC)

Documentation

Showing up to 5 results
|